OBJECT B, 57425

Orbit data source: Space-Track

You're viewing an Uncataloged Satellite

Recently launched and/or uncataloged satellites may have evolving metadata. Metadata may include but not limited to: Owner, Maufacturer, Bus, Motor, and Mission.

OBJECT B, 57425 is a satellite owned by Sixiang Aishu (CN) in SSO that was launched on Sun, 23 Jul 2023 UTC via a CHANG ZHENG 2D launch vehicle from the Taiyaun Space Center, China (TSC). Unknown objects in Earth's orbit typically refer to objects detected orbiting the Earth but have not yet been identified or cataloged. These objects could be anything from previously untracked satellites, spent rocket stages, debris from satellite collisions, or even natural meteoroids temporarily captured by Earth's gravity.

Loading next visibility...
Identifier
57425, 2023-104B
Orbit
SSO
Last TLE update
10 hours ago
Origin
Flag of CNSXAK (CN / PRC)
Manufacturer
Yinhe
Mission
Operational Commercial Imaging
Bus & Motor
AS, Unknown motor
Mass
~100 kg wet, ~100 kg dry
Launch date (UTC)
2023-07-23 (2 years ago)
Launch vehicle
CHANG ZHENG 2D
Launch site
Taiyaun Space Center, China (TSC)
Object type
Unknown
Shape & HBR
Box + 2 Pan, 1.5 m
Radar Cross Section
0.363 m², Medium (>0.1 m² and < 1m²)

Expand to show TLE details & history

TLE from 10 hours ago
0 OBJECT B
1 57425U 23104B   25191.61184095  .00017299  00000-0  28274-3 0  9999
2 57425  97.3061 266.4679 0006810 229.2815 130.7847 15.52583934110170
Epoch: 2025-07-10T14:41Z
TLE epoch observation values (Epoch: 2025-07-10T14:41:03.058Z)
Latitude
-0.00001°
Longitude
117.42953°
Altitude
415.344 km
Speed
7.66 km/s
True Right ascension
17h 45m 52s
True Declination
0° 00' 00"
Sunlit
Object was in full shadow at epoch
Visualization orbit readout
Latitude
81.95106°
Longitude
2.20995°
Altitude
425.892 km
Speed
7.661 km/s
Apparent Right ascension
01h 10m 43s
Apparent Declination
32° 15' 11"
Sunlit
Object is in daylight
Visualization observer readout
Local Sidereal Time
12:38:13
Azimuth
352.802° N
Elevation
-17.439°
Doppler factor
1
Orbital elements
Apogee altitude
410.723 km
Perigee altitude
401.483 km
Semi-major axis
6,784.24 km
Eccentricity
0.00068
Inclination
97.3061°
RAAN
266.4679°
Arg. of periapsis
229.2815°
True anomaly
Unknown
Mean anomaly
130.7847°
Eccentric anomaly
Unknown
Mean motion
3.88411 °/min
Orbital period
92.69 mins
BSTAR
0.00028274
Loading maneuver chart data...
Loading SW <> Apogee altitude chart data...
Loading historical data...
Loading historical data...
Loading historical data...
Loading historical data...
Loading historical data...
Loading historical data...
Loading historical data...
Other satellites on launch #104 in the year 2023 (2023-07-23 UTC)

OBJECT B Visibility forecast

Observer location: undefined°, undefined°

Span
Click to sort rows by Start time (UTC) header in descending order
Start Az.
Max El. time (UTC)
Max El. Az.
Max El.
End time (UTC)
End Az.
5 mins2025-07-11 04:44:00.337Z146.361° SSE2025-07-11 04:47:00.337Z70.64° E33.847°2025-07-11 04:49:00.337Z9.452° NNE
|